Time,TemperatureF,DewpointF,PressureIn,WindDirection,WindDirectionDegrees,WindSpeedMPH,WindSpeedGustMPH,Humidity,HourlyPrecipIn,Conditions,Clouds,dailyrainin,SoftwareType,DateUTC
2013-01-18 00:03:00,25.0,16.0,-100.00,NW,315,13.0,26.0,67,0.00,,,-99.99,,2013-01-18 05:03:00,
2013-01-18 00:12:00,24.0,15.0,-100.00,NW,325,12.0,24.0,65,0.00,,,-99.99,,2013-01-18 05:12:00,
2013-01-18 00:22:00,24.0,14.0,-100.00,NW,320,9.0,21.0,65,0.00,,,-99.99,,2013-01-18 05:22:00,
2013-01-18 00:33:00,24.0,15.0,-100.00,NW,315,11.0,21.0,66,0.00,,,-99.99,,2013-01-18 05:33:00,
2013-01-18 00:42:00,24.0,15.0,-100.00,North,350,4.0,16.0,67,0.55,,,-99.99,,2013-01-18 05:42:00,
2013-01-18 00:52:00,23.0,15.0,-100.00,NW,305,10.0,19.0,68,0.00,,,-99.99,,2013-01-18 05:52:00,
2013-01-18 01:02:00,23.0,14.0,-100.00,NW,305,11.0,21.0,67,0.55,,,-99.99,,2013-01-18 06:02:00,
2013-01-18 01:12:00,22.0,13.0,-100.00,NW,310,11.0,19.0,66,0.55,,,-99.99,,2013-01-18 06:12:00,
2013-01-18 01:22:00,22.0,12.0,-100.00,NNW,335,11.0,21.0,64,0.00,,,-99.99,,2013-01-18 06:22:00,
2013-01-18 01:33:00,22.0,11.0,-100.00,NNW,340,14.0,23.0,63,0.00,,,-99.99,,2013-01-18 06:33:00,
2013-01-18 01:43:00,22.0,11.0,-100.00,NNW,330,14.0,25.0,62,0.00,,,-99.99,,2013-01-18 06:43:00,
2013-01-18 01:52:00,22.0,11.0,-100.00,NW,325,6.0,17.0,62,0.00,,,-99.99,,2013-01-18 06:52:00,
2013-01-18 02:02:00,21.0,10.0,-100.00,NW,315,13.0,24.0,62,0.00,,,-99.99,,2013-01-18 07:02:00,
2013-01-18 02:12:00,21.0,10.0,-100.00,North,350,11.0,17.0,60,0.00,,,-99.99,,2013-01-18 07:12:00,
2013-01-18 02:22:00,21.0,9.0,-100.00,NNW,330,9.0,19.0,59,0.00,,,-99.99,,2013-01-18 07:22:00,
2013-01-18 02:32:00,21.0,9.0,-100.00,NNW,340,6.0,19.0,59,0.00,,,-99.99,,2013-01-18 07:32:00,
2013-01-18 02:42:00,21.0,9.0,-100.00,NNW,345,7.0,12.0,59,0.00,,,-99.99,,2013-01-18 07:42:00,
2013-01-18 02:52:00,21.0,9.0,-100.00,NNW,345,7.0,12.0,59,0.00,,,-99.99,,2013-01-18 07:52:00,
2013-01-18 03:02:00,21.0,9.0,-100.00,NW,320,7.0,14.0,59,0.00,,,-99.99,,2013-01-18 08:02:00,
2013-01-18 03:12:00,21.0,8.0,-100.00,NNW,335,12.0,19.0,57,0.00,,,-99.99,,2013-01-18 08:12:00,
2013-01-18 03:22:00,21.0,8.0,-100.00,NNW,340,6.0,17.0,57,0.00,,,-99.99,,2013-01-18 08:22:00,
2013-01-18 03:32:00,21.0,9.0,-100.00,NW,315,4.0,11.0,57,0.00,,,-99.99,,2013-01-18 08:32:00,
2013-01-18 03:42:00,21.0,9.0,-100.00,NNW,340,4.0,10.0,57,0.00,,,-99.99,,2013-01-18 08:42:00,
2013-01-18 03:52:00,21.0,9.0,-100.00,NW,320,4.0,11.0,58,0.00,,,-99.99,,2013-01-18 08:52:00,
2013-01-18 04:03:00,21.0,9.0,-100.00,West,270,4.0,9.0,58,0.00,,,-99.99,,2013-01-18 09:03:00,
2013-01-18 04:12:00,21.0,9.0,-100.00,NW,310,3.0,9.0,59,0.00,,,-99.99,,2013-01-18 09:12:00,
2013-01-18 04:22:00,21.0,9.0,-100.00,WNW,300,4.0,9.0,59,0.00,,,-99.99,,2013-01-18 09:22:00,
2013-01-18 04:33:00,22.0,10.0,-100.00,NW,305,4.0,13.0,59,0.00,,,-99.99,,2013-01-18 09:33:00,
2013-01-18 04:42:00,22.0,10.0,-100.00,NW,315,7.0,14.0,59,0.00,,,-99.99,,2013-01-18 09:42:00,
2013-01-18 04:52:00,22.0,10.0,-100.00,NW,305,7.0,13.0,59,0.00,,,-99.99,,2013-01-18 09:52:00,
2013-01-18 05:03:00,22.0,10.0,-100.00,NW,305,7.0,12.0,59,0.00,,,-99.99,,2013-01-18 10:03:00,
2013-01-18 05:12:00,22.0,10.0,-100.00,NW,305,8.0,12.0,59,0.00,,,-99.99,,2013-01-18 10:12:00,
2013-01-18 05:22:00,22.0,11.0,-100.00,NW,315,4.0,10.0,60,0.00,,,-99.99,,2013-01-18 10:22:00,
2013-01-18 05:32:00,22.0,11.0,-100.00,NW,305,4.0,11.0,62,0.00,,,-99.99,,2013-01-18 10:32:00,
2013-01-18 05:42:00,22.0,11.0,-100.00,NW,315,6.0,11.0,64,1.10,,,-99.99,,2013-01-18 10:42:00,
2013-01-18 05:52:00,22.0,12.0,-100.00,NW,310,3.0,11.0,66,1.10,,,-99.99,,2013-01-18 10:52:00,
2013-01-18 06:02:00,21.0,13.0,-100.00,NNW,330,2.0,11.0,70,1.69,,,-99.99,,2013-01-18 11:02:00,
2013-01-18 06:12:00,21.0,14.0,-100.00,WNW,300,4.0,9.0,73,4.53,,,-99.99,,2013-01-18 11:12:00,
2013-01-18 06:23:00,21.0,14.0,-100.00,NW,310,4.0,6.0,74,0.55,,,-99.99,,2013-01-18 11:23:00,
2013-01-18 06:32:00,21.0,15.0,-100.00,NNW,345,2.0,6.0,76,0.55,,,-99.99,,2013-01-18 11:32:00,
2013-01-18 06:42:00,21.0,15.0,-100.00,North,0,2.0,6.0,77,0.00,,,-99.99,,2013-01-18 11:42:00,
2013-01-18 06:52:00,21.0,15.0,-100.00,North,350,2.0,4.0,77,0.00,,,-99.99,,2013-01-18 11:52:00,
2013-01-18 07:03:00,21.0,15.0,-100.00,NNW,330,1.0,3.0,78,0.00,,,-99.99,,2013-01-18 12:03:00,
2013-01-18 07:12:00,21.0,15.0,-100.00,NNW,340,1.0,4.0,78,0.00,,,-99.99,,2013-01-18 12:12:00,
2013-01-18 07:22:00,21.0,15.0,-100.00,WSW,255,0.0,5.0,78,0.00,,,-99.99,,2013-01-18 12:22:00,
2013-01-18 07:33:00,20.0,15.0,-100.00,WNW,285,0.0,2.0,79,0.00,,,-99.99,,2013-01-18 12:33:00,
2013-01-18 07:43:00,20.0,15.0,-100.00,WNW,300,0.0,3.0,79,0.00,,,-99.99,,2013-01-18 12:43:00,
2013-01-18 07:52:00,20.0,15.0,-100.00,NNW,330,1.0,4.0,79,0.00,,,-99.99,,2013-01-18 12:52:00,
2013-01-18 08:03:00,20.0,15.0,-100.00,SW,230,1.0,3.0,79,0.00,,,-99.99,,2013-01-18 13:03:00,
2013-01-18 08:12:00,20.0,15.0,-100.00,WSW,245,0.0,4.0,79,0.00,,,-99.99,,2013-01-18 13:12:00,
2013-01-18 08:23:00,20.0,14.0,-100.00,South,180,1.0,4.0,78,0.00,,,-99.99,,2013-01-18 13:23:00,
2013-01-18 08:33:00,19.0,14.0,-100.00,SW,220,0.0,4.0,78,0.00,,,-99.99,,2013-01-18 13:33:00,
2013-01-18 08:43:00,20.0,14.0,-100.00,NW,325,1.0,4.0,77,0.00,,,-99.99,,2013-01-18 13:43:00,
2013-01-18 08:53:00,20.0,14.0,-100.00,SW,235,2.0,4.0,77,0.00,,,-99.99,,2013-01-18 13:53:00,
2013-01-18 09:03:00,21.0,14.0,-100.00,West,260,2.0,6.0,75,0.00,,,-99.99,,2013-01-18 14:03:00,
2013-01-18 09:12:00,21.0,15.0,-100.00,SW,230,2.0,6.0,75,0.00,,,-99.99,,2013-01-18 14:12:00,
2013-01-18 09:23:00,22.0,16.0,-100.00,WSW,240,2.0,7.0,74,0.00,,,-99.99,,2013-01-18 14:23:00,
2013-01-18 09:34:00,24.0,16.0,-100.00,SW,225,1.0,7.0,71,0.00,,,-99.99,,2013-01-18 14:34:00,
2013-01-18 09:42:00,25.0,16.0,-100.00,SSW,195,1.0,7.0,69,0.00,,,-99.99,,2013-01-18 14:42:00,
2013-01-18 09:53:00,25.0,16.0,-100.00,West,260,2.0,7.0,67,0.00,,,-99.99,,2013-01-18 14:53:00,
2013-01-18 10:03:00,26.0,16.0,-100.00,East,90,2.0,6.0,66,0.00,,,-99.99,,2013-01-18 15:03:00,
2013-01-18 10:13:00,26.0,16.0,-100.00,WSW,255,6.0,11.0,65,0.00,,,-99.99,,2013-01-18 15:13:00,
2013-01-18 10:23:00,26.0,17.0,-100.00,WSW,245,4.0,11.0,66,0.00,,,-99.99,,2013-01-18 15:23:00,
2013-01-18 10:34:00,26.0,17.0,-100.00,South,185,4.0,11.0,66,0.00,,,-99.99,,2013-01-18 15:34:00,
2013-01-18 10:43:00,27.0,17.0,-100.00,WSW,245,2.0,9.0,66,0.00,,,-99.99,,2013-01-18 15:43:00,
2013-01-18 10:53:00,28.0,18.0,-100.00,SW,230,4.0,9.0,65,0.00,,,-99.99,,2013-01-18 15:53:00,
2013-01-18 11:03:00,28.0,17.0,-100.00,NW,305,1.0,7.0,63,0.00,,,-99.99,,2013-01-18 16:03:00,
2013-01-18 11:12:00,28.0,17.0,-100.00,WSW,255,3.0,7.0,62,0.00,,,-99.99,,2013-01-18 16:12:00,
2013-01-18 11:23:00,29.0,17.0,-100.00,SW,235,2.0,10.0,61,0.00,,,-99.99,,2013-01-18 16:23:00,
2013-01-18 11:33:00,29.0,17.0,-100.00,SW,235,5.0,9.0,59,0.00,,,-99.99,,2013-01-18 16:33:00,
2013-01-18 11:43:00,30.0,17.0,-100.00,SSW,210,4.0,11.0,58,0.00,,,-99.99,,2013-01-18 16:43:00,
2013-01-18 11:52:00,30.0,17.0,-100.00,SSW,210,4.0,11.0,58,0.00,,,-99.99,,2013-01-18 16:52:00,
2013-01-18 12:03:00,29.0,16.0,-100.00,SSW,210,4.0,12.0,57,0.00,,,-99.99,,2013-01-18 17:03:00,
2013-01-18 12:13:00,30.0,17.0,-100.00,WSW,240,4.0,13.0,57,0.00,,,-99.99,,2013-01-18 17:13:00,
2013-01-18 12:23:00,30.0,17.0,-100.00,WSW,245,7.0,14.0,57,0.00,,,-99.99,,2013-01-18 17:23:00,
2013-01-18 12:33:00,30.0,17.0,-100.00,SW,215,3.0,14.0,56,0.00,,,-99.99,,2013-01-18 17:33:00,
2013-01-18 12:43:00,31.0,17.0,-100.00,SW,235,6.0,12.0,55,0.00,,,-99.99,,2013-01-18 17:43:00,
2013-01-18 12:53:00,31.0,17.0,-100.00,West,265,5.0,11.0,54,0.00,,,-99.99,,2013-01-18 17:53:00,
2013-01-18 13:03:00,32.0,17.0,-100.00,SW,235,4.0,14.0,54,0.00,,,-99.99,,2013-01-18 18:03:00,
2013-01-18 13:13:00,31.0,17.0,-100.00,SW,235,7.0,13.0,54,0.00,,,-99.99,,2013-01-18 18:13:00,
2013-01-18 13:23:00,31.0,17.0,-100.00,SSW,210,6.0,12.0,54,0.00,,,-99.99,,2013-01-18 18:23:00,
2013-01-18 13:33:00,32.0,17.0,-100.00,SW,225,7.0,12.0,54,0.00,,,-99.99,,2013-01-18 18:33:00,
2013-01-18 13:43:00,32.0,17.0,-100.00,SW,230,4.0,12.0,53,0.00,,,-99.99,,2013-01-18 18:43:00,
2013-01-18 13:52:00,32.0,17.0,-100.00,SW,230,4.0,12.0,53,0.00,,,-99.99,,2013-01-18 18:52:00,
2013-01-18 14:03:00,33.0,17.0,-100.00,South,185,7.0,12.0,51,0.00,,,-99.99,,2013-01-18 19:03:00,
2013-01-18 14:13:00,33.0,17.0,-100.00,SW,220,6.0,16.0,51,0.00,,,-99.99,,2013-01-18 19:13:00,
2013-01-18 14:23:00,32.0,16.0,-100.00,SSW,195,7.0,13.0,50,0.00,,,-99.99,,2013-01-18 19:23:00,
2013-01-18 14:33:00,32.0,16.0,-100.00,SSW,205,5.0,13.0,50,0.00,,,-99.99,,2013-01-18 19:33:00,
2013-01-18 14:43:00,32.0,16.0,-100.00,South,185,9.0,13.0,50,0.00,,,-99.99,,2013-01-18 19:43:00,
2013-01-18 14:52:00,33.0,16.0,-100.00,SW,225,4.0,13.0,49,0.00,,,-99.99,,2013-01-18 19:52:00,
2013-01-18 15:03:00,33.0,16.0,-100.00,SSW,210,4.0,12.0,48,0.00,,,-99.99,,2013-01-18 20:03:00,
2013-01-18 15:13:00,33.0,16.0,-100.00,South,180,11.0,17.0,47,0.00,,,-99.99,,2013-01-18 20:13:00,
2013-01-18 15:23:00,33.0,15.0,-100.00,South,175,14.0,18.0,48,0.00,,,-99.99,,2013-01-18 20:23:00,
2013-01-18 15:33:00,33.0,16.0,-100.00,SW,225,5.0,19.0,48,0.00,,,-99.99,,2013-01-18 20:33:00,
2013-01-18 15:43:00,34.0,16.0,-100.00,South,175,9.0,15.0,48,0.00,,,-99.99,,2013-01-18 20:43:00,
2013-01-18 15:53:00,34.0,16.0,-100.00,SSW,210,8.0,17.0,47,0.00,,,-99.99,,2013-01-18 20:53:00,
2013-01-18 16:03:00,34.0,16.0,-100.00,South,185,6.0,13.0,46,0.00,,,-99.99,,2013-01-18 21:03:00,
2013-01-18 16:13:00,34.0,16.0,-100.00,SW,235,4.0,16.0,47,0.00,,,-99.99,,2013-01-18 21:13:00,
2013-01-18 16:23:00,33.0,16.0,-100.00,SSW,195,8.0,17.0,47,0.00,,,-99.99,,2013-01-18 21:23:00,
2013-01-18 16:33:00,33.0,16.0,-100.00,South,175,12.0,22.0,47,0.00,,,-99.99,,2013-01-18 21:33:00,
2013-01-18 16:43:00,33.0,16.0,-100.00,South,175,12.0,22.0,47,0.00,,,-99.99,,2013-01-18 21:43:00,
2013-01-18 16:52:00,33.0,15.0,-100.00,South,175,9.0,20.0,47,0.00,,,-99.99,,2013-01-18 21:52:00,
2013-01-18 17:03:00,33.0,15.0,-100.00,South,180,11.0,20.0,47,0.00,,,-99.99,,2013-01-18 22:03:00,
2013-01-18 17:12:00,33.0,15.0,-100.00,SSW,205,9.0,20.0,47,0.00,,,-99.99,,2013-01-18 22:12:00,
2013-01-18 17:23:00,33.0,15.0,-100.00,SSW,195,10.0,19.0,48,0.00,,,-99.99,,2013-01-18 22:23:00,
2013-01-18 17:33:00,33.0,16.0,-100.00,South,175,7.0,15.0,49,0.00,,,-99.99,,2013-01-18 22:33:00,
2013-01-18 17:43:00,32.0,16.0,-100.00,SSW,210,9.0,19.0,49,0.00,,,-99.99,,2013-01-18 22:43:00,
2013-01-18 17:52:00,32.0,16.0,-100.00,SSW,195,6.0,14.0,50,0.00,,,-99.99,,2013-01-18 22:52:00,
2013-01-18 18:03:00,32.0,16.0,-100.00,South,180,9.0,17.0,51,0.00,,,-99.99,,2013-01-18 23:03:00,
2013-01-18 18:12:00,32.0,16.0,-100.00,SSW,195,9.0,16.0,52,0.00,,,-99.99,,2013-01-18 23:12:00,
2013-01-18 18:22:00,32.0,16.0,-100.00,South,185,11.0,17.0,52,0.00,,,-99.99,,2013-01-18 23:22:00,
2013-01-18 18:33:00,32.0,16.0,-100.00,SSW,195,11.0,19.0,51,0.00,,,-99.99,,2013-01-18 23:33:00,
2013-01-18 18:43:00,32.0,16.0,-100.00,South,190,12.0,19.0,52,0.00,,,-99.99,,2013-01-18 23:43:00,
2013-01-18 18:52:00,31.0,16.0,-100.00,South,180,11.0,21.0,52,0.00,,,-99.99,,2013-01-18 23:52:00,
2013-01-18 19:02:00,31.0,16.0,-100.00,South,185,12.0,27.0,52,0.00,,,-99.99,,2013-01-19 00:02:00,
2013-01-18 19:12:00,31.0,17.0,-100.00,SSW,195,13.0,27.0,53,0.00,,,-99.99,,2013-01-19 00:12:00,
2013-01-18 19:23:00,31.0,17.0,-100.00,South,190,17.0,25.0,54,0.00,,,-99.99,,2013-01-19 00:23:00,
2013-01-18 19:33:00,31.0,17.0,-100.00,SSW,200,18.0,27.0,55,0.00,,,-99.99,,2013-01-19 00:33:00,
2013-01-18 19:43:00,31.0,17.0,-100.00,South,190,14.0,24.0,55,0.00,,,-99.99,,2013-01-19 00:43:00,
2013-01-18 19:53:00,31.0,18.0,-100.00,South,180,14.0,27.0,56,0.00,,,-99.99,,2013-01-19 00:53:00,
2013-01-18 20:02:00,31.0,18.0,-100.00,SSW,210,12.0,22.0,57,0.00,,,-99.99,,2013-01-19 01:02:00,
2013-01-18 20:12:00,31.0,18.0,-100.00,South,190,19.0,29.0,57,0.00,,,-99.99,,2013-01-19 01:12:00,
2013-01-18 20:22:00,31.0,18.0,-100.00,South,190,16.0,24.0,57,0.00,,,-99.99,,2013-01-19 01:22:00,
2013-01-18 20:33:00,31.0,18.0,-100.00,SW,215,15.0,30.0,57,0.00,,,-99.99,,2013-01-19 01:33:00,
2013-01-18 20:42:00,31.0,18.0,-100.00,South,190,16.0,24.0,57,0.00,,,-99.99,,2013-01-19 01:42:00,
2013-01-18 20:52:00,31.0,18.0,-100.00,SSW,195,16.0,25.0,57,0.00,,,-99.99,,2013-01-19 01:52:00,
2013-01-18 21:03:00,31.0,18.0,-100.00,SSW,195,16.0,25.0,57,0.00,,,-99.99,,2013-01-19 02:03:00,
2013-01-18 21:12:00,32.0,18.0,-100.00,SSW,195,16.0,25.0,56,0.00,,,-99.99,,2013-01-19 02:12:00,
2013-01-18 21:23:00,32.0,18.0,-100.00,SSW,200,8.0,25.0,56,0.00,,,-99.99,,2013-01-19 02:23:00,
2013-01-18 21:33:00,32.0,18.0,-100.00,South,190,16.0,27.0,56,0.00,,,-99.99,,2013-01-19 02:33:00,
2013-01-18 21:43:00,32.0,18.0,-100.00,SSW,195,16.0,27.0,55,0.00,,,-99.99,,2013-01-19 02:43:00,
2013-01-18 21:53:00,32.0,18.0,-100.00,SSW,195,16.0,27.0,55,0.00,,,-99.99,,2013-01-19 02:53:00,
2013-01-18 22:03:00,32.0,18.0,-100.00,South,185,13.0,30.0,55,0.00,,,-99.99,,2013-01-19 03:03:00,
2013-01-18 22:12:00,32.0,18.0,-100.00,SSW,210,16.0,30.0,54,0.00,,,-99.99,,2013-01-19 03:12:00,
2013-01-18 22:22:00,33.0,18.0,-100.00,South,190,12.0,25.0,54,0.00,,,-99.99,,2013-01-19 03:22:00,
2013-01-18 22:33:00,33.0,18.0,-100.00,SSW,195,14.0,28.0,53,0.00,,,-99.99,,2013-01-19 03:33:00,
2013-01-18 22:43:00,33.0,18.0,-100.00,South,180,14.0,25.0,53,0.00,,,-99.99,,2013-01-19 03:43:00,
2013-01-18 22:52:00,33.0,18.0,-100.00,SSW,195,17.0,27.0,53,0.00,,,-99.99,,2013-01-19 03:52:00,
2013-01-18 23:02:00,33.0,19.0,-100.00,SSW,205,13.0,27.0,53,0.00,,,-99.99,,2013-01-19 04:02:00,
2013-01-18 23:12:00,33.0,19.0,-100.00,SSW,195,15.0,27.0,53,0.00,,,-99.99,,2013-01-19 04:12:00,
2013-01-18 23:22:00,34.0,19.0,-100.00,SSW,200,14.0,26.0,53,0.00,,,-99.99,,2013-01-19 04:22:00,
2013-01-18 23:33:00,34.0,19.0,-100.00,SSW,210,16.0,29.0,53,0.00,,,-99.99,,2013-01-19 04:33:00,
2013-01-18 23:42:00,34.0,19.0,-100.00,SSW,210,12.0,29.0,53,0.00,,,-99.99,,2013-01-19 04:42:00,
2013-01-18 23:52:00,35.0,19.0,-100.00,SSW,205,12.0,29.0,53,0.00,,,-99.99,,2013-01-19 04:52:00,